sat.trackr.live / text

‹ back to catalog

STARLINK-32512

NORAD 62027 · 2024-213V

PAYLOAD ACTIVE UNKNOWN

§ Identity

Operator
Country
US
Launch date
2024-11-18
Launch site
AFWTR
Launch vehicle
Mass (kg)
RCS (m²)

Purposes: comms

External: N2YO · Heavens-Above · Gunter

§ Orbital elements

Epoch: 2026-09-21T11:33:02.643840Z

Period
93.90 min
Inclination
53.1605°
Eccentricity
0.0000889
Mean motion
15.33563555 rev/d
Perigee alt
464.6 km
Apogee alt
465.8 km
Semi-major
6,843.3 km
B*
2.4119e-4
RAAN
337.1202°
Arg perigee
70.7630°
Mean anomaly
289.3469°
Rev number
10,315

§ Raw data

STARLINK-325121 62027U 24213V   26264.48128060  .00007571  00000+0  24119-3 0  99972 62027  53.1605 337.1202 0000889  70.7630 289.3469 15.33563555103157

JSON: /api/v1/satellites/62027 · /tle

For live sub-satellite position, see the globe view (requires WebGL).

§ Visibility from observer

Set your observer location to see the next 7 days of passes ≥ 10°. The values pass through the URL so the page stays shareable.

No JS? Fill the form by hand. The geolocation button needs JavaScript.